Time,TemperatureF,DewpointF,PressureIn,WindDirection,WindDirectionDegrees,WindSpeedMPH,WindSpeedGustMPH,Humidity,HourlyPrecipIn,Conditions,Clouds,dailyrainin,SoftwareType,DateUTC
2013-02-05 00:02:00,45.6,42.8,29.88,ESE,121,1.0,4.0,90,0.00,,---,0.00,VWS V14.01,2013-02-05 08:02:00,
2013-02-05 00:08:00,45.6,42.8,29.88,South,186,4.0,7.0,90,0.00,,---,0.00,VWS V14.01,2013-02-05 08:08:00,
2013-02-05 00:13:00,45.6,42.8,29.88,SSE,159,1.0,8.0,90,0.00,,---,0.00,VWS V14.01,2013-02-05 08:13:00,
2013-02-05 00:18:00,45.5,42.7,29.88,South,174,1.0,8.0,90,0.00,,---,0.00,VWS V14.01,2013-02-05 08:18:00,
2013-02-05 00:23:00,45.5,42.7,29.88,SSE,159,1.0,8.0,90,0.00,,---,0.00,VWS V14.01,2013-02-05 08:23:00,
2013-02-05 00:28:00,45.5,42.7,29.87,ESE,113,0.0,8.0,90,0.00,,---,0.00,VWS V14.01,2013-02-05 08:28:00,
2013-02-05 00:33:00,45.5,42.5,29.87,SE,128,2.0,5.0,89,0.00,,---,0.00,VWS V14.01,2013-02-05 08:33:00,
2013-02-05 00:38:00,45.5,42.5,29.87,SE,132,0.0,5.0,89,0.00,,---,0.00,VWS V14.01,2013-02-05 08:38:00,
2013-02-05 00:43:00,45.5,42.5,29.87,SSE,154,0.0,5.0,89,0.00,,---,0.00,VWS V14.01,2013-02-05 08:43:00,
2013-02-05 00:48:00,45.6,42.5,29.87,SSE,153,1.0,11.0,89,0.00,,---,0.00,VWS V14.01,2013-02-05 08:48:00,
2013-02-05 00:53:00,45.6,42.5,29.87,SE,141,1.0,11.0,89,0.00,,---,0.00,VWS V14.01,2013-02-05 08:53:00,
2013-02-05 00:58:00,45.6,42.5,29.87,SE,144,2.0,11.0,89,0.00,,---,0.00,VWS V14.01,2013-02-05 08:58:00,
2013-02-05 01:03:00,45.5,42.5,29.87,SE,144,0.0,2.0,89,0.00,,---,0.00,VWS V14.01,2013-02-05 09:03:00,
2013-02-05 01:08:00,45.4,42.3,29.87,SSE,165,0.0,3.0,89,0.00,,---,0.00,VWS V14.01,2013-02-05 09:08:00,
2013-02-05 01:13:00,45.4,42.6,29.87,SE,144,1.0,4.0,90,0.00,,---,0.00,VWS V14.01,2013-02-05 09:13:00,
2013-02-05 01:18:00,45.4,42.6,29.87,SE,143,0.0,4.0,90,0.00,,---,0.00,VWS V14.01,2013-02-05 09:18:00,
2013-02-05 01:23:00,45.5,42.7,29.87,SSE,167,0.0,6.0,90,0.00,,---,0.00,VWS V14.01,2013-02-05 09:23:00,
2013-02-05 01:28:00,45.6,42.5,29.87,ESE,118,3.0,6.0,89,0.00,,---,0.00,VWS V14.01,2013-02-05 09:28:00,
2013-02-05 01:33:00,45.7,42.7,29.87,ESE,106,0.0,2.0,89,0.00,,---,0.00,VWS V14.01,2013-02-05 09:33:00,
2013-02-05 01:38:00,45.7,42.7,29.87,SSE,161,3.0,6.0,89,0.00,,---,0.00,VWS V14.01,2013-02-05 09:38:00,
2013-02-05 01:43:00,45.7,42.7,29.87,SE,146,0.0,6.0,89,0.00,,---,0.00,VWS V14.01,2013-02-05 09:43:00,
2013-02-05 01:49:00,45.7,42.7,29.87,ESE,115,3.0,6.0,89,0.00,,---,0.00,VWS V14.01,2013-02-05 09:49:00,
2013-02-05 01:54:00,45.7,42.7,29.87,SSE,156,1.0,7.0,89,0.00,,---,0.00,VWS V14.01,2013-02-05 09:54:00,
2013-02-05 01:59:00,45.8,42.8,29.87,SSE,155,1.0,7.0,89,0.00,,---,0.00,VWS V14.01,2013-02-05 09:59:00,
2013-02-05 02:04:00,45.8,42.8,29.87,SSE,154,3.0,3.0,89,0.00,,---,0.00,VWS V14.01,2013-02-05 10:04:00,
2013-02-05 02:09:00,45.7,42.7,29.87,SSE,160,0.0,7.0,89,0.00,,---,0.00,VWS V14.01,2013-02-05 10:09:00,
2013-02-05 02:14:00,45.7,42.7,29.87,SE,138,2.0,7.0,89,0.00,,---,0.00,VWS V14.01,2013-02-05 10:14:00,
2013-02-05 02:19:00,45.7,42.7,29.87,SE,137,0.0,7.0,89,0.00,,---,0.00,VWS V14.01,2013-02-05 10:19:00,
2013-02-05 02:24:00,45.7,42.7,29.87,ESE,123,0.0,7.0,89,0.00,,---,0.00,VWS V14.01,2013-02-05 10:24:00,
2013-02-05 02:29:00,45.7,42.7,29.87,SSE,151,0.0,7.0,89,0.00,,---,0.00,VWS V14.01,2013-02-05 10:29:00,
2013-02-05 02:34:00,45.6,42.5,29.87,SSE,161,0.0,7.0,89,0.00,,---,0.00,VWS V14.01,2013-02-05 10:34:00,
2013-02-05 02:39:00,45.6,42.5,29.87,SE,146,0.0,7.0,89,0.00,,---,0.00,VWS V14.01,2013-02-05 10:39:00,
2013-02-05 02:44:00,45.6,42.5,29.86,SSE,159,0.0,7.0,89,0.00,,---,0.00,VWS V14.01,2013-02-05 10:44:00,
2013-02-05 02:49:00,45.6,42.5,29.86,SE,140,0.0,7.0,89,0.00,,---,0.00,VWS V14.01,2013-02-05 10:49:00,
2013-02-05 02:54:00,45.6,42.5,29.85,ESE,103,1.0,7.0,89,0.00,,---,0.00,VWS V14.01,2013-02-05 10:54:00,
2013-02-05 03:00:00,45.5,42.5,29.85,SE,142,0.0,7.0,89,0.00,,---,0.00,VWS V14.01,2013-02-05 11:00:00,
2013-02-05 03:05:00,45.4,42.6,29.85,SE,145,2.0,3.0,90,0.00,,---,0.00,VWS V14.01,2013-02-05 11:05:00,
2013-02-05 03:10:00,45.2,42.5,29.85,SSE,156,0.0,3.0,90,0.00,,---,0.00,VWS V14.01,2013-02-05 11:10:00,
2013-02-05 03:15:00,45.2,42.5,29.85,ESE,122,3.0,3.0,90,0.00,,---,0.00,VWS V14.01,2013-02-05 11:15:00,
2013-02-05 03:20:00,45.1,42.3,29.85,SSE,150,2.0,3.0,90,0.00,,---,0.00,VWS V14.01,2013-02-05 11:20:00,
2013-02-05 03:25:00,45.1,42.3,29.86,SSE,149,0.0,3.0,90,0.00,,---,0.00,VWS V14.01,2013-02-05 11:25:00,
2013-02-05 03:30:00,45.1,42.3,29.86,SSE,149,0.0,3.0,90,0.00,,---,0.00,VWS V14.01,2013-02-05 11:30:00,
2013-02-05 03:35:00,45.2,42.5,29.86,ESE,119,1.0,3.0,90,0.00,,---,0.00,VWS V14.01,2013-02-05 11:35:00,
2013-02-05 03:40:00,45.2,42.5,29.86,ESE,120,0.0,3.0,90,0.00,,---,0.00,VWS V14.01,2013-02-05 11:40:00,
2013-02-05 03:45:00,45.2,42.5,29.86,ESE,120,0.0,3.0,90,0.00,,---,0.00,VWS V14.01,2013-02-05 11:45:00,
2013-02-05 03:50:00,45.2,42.5,29.86,ESE,120,0.0,3.0,90,0.00,,---,0.00,VWS V14.01,2013-02-05 11:50:00,
2013-02-05 03:55:00,45.3,42.5,29.86,South,182,0.0,3.0,90,0.00,,---,0.00,VWS V14.01,2013-02-05 11:55:00,
2013-02-05 04:00:00,45.4,42.6,29.86,South,182,0.0,3.0,90,0.00,,---,0.00,VWS V14.01,2013-02-05 12:00:00,
2013-02-05 04:05:00,45.4,42.6,29.86,SE,146,0.0,3.0,90,0.00,,---,0.00,VWS V14.01,2013-02-05 12:05:00,
2013-02-05 04:10:00,45.4,42.6,29.87,WSW,238,0.0,6.0,90,0.00,,---,0.00,VWS V14.01,2013-02-05 12:10:00,
2013-02-05 04:15:00,45.4,42.6,29.87,WSW,238,0.0,6.0,90,0.00,,---,0.00,VWS V14.01,2013-02-05 12:15:00,
2013-02-05 04:20:00,45.4,42.6,29.87,WSW,238,0.0,6.0,90,0.00,,---,0.00,VWS V14.01,2013-02-05 12:20:00,
2013-02-05 04:25:00,45.3,42.8,29.86,WSW,238,0.0,6.0,91,0.01,,---,0.01,VWS V14.01,2013-02-05 12:25:00,
2013-02-05 04:30:00,45.2,42.7,29.86,WSW,247,0.0,1.0,91,0.01,,---,0.01,VWS V14.01,2013-02-05 12:30:00,
2013-02-05 04:36:00,45.1,42.9,29.86,SSE,163,1.0,6.0,92,0.02,,---,0.02,VWS V14.01,2013-02-05 12:36:00,
2013-02-05 04:41:00,45.0,42.8,29.86,ESE,119,0.0,6.0,92,0.02,,---,0.02,VWS V14.01,2013-02-05 12:41:00,
2013-02-05 04:46:00,45.0,42.8,29.86,SSE,165,0.0,6.0,92,0.03,,---,0.03,VWS V14.01,2013-02-05 12:46:00,
2013-02-05 04:51:00,44.8,42.6,29.86,SSE,154,3.0,6.0,92,0.03,,---,0.03,VWS V14.01,2013-02-05 12:51:00,
2013-02-05 04:56:00,44.7,42.8,29.86,SSE,164,0.0,6.0,93,0.03,,---,0.03,VWS V14.01,2013-02-05 12:56:00,
2013-02-05 05:01:00,44.7,42.8,29.86,SE,126,1.0,6.0,93,0.04,,---,0.04,VWS V14.01,2013-02-05 13:01:00,
2013-02-05 05:06:00,44.6,42.7,29.85,SE,146,0.0,6.0,93,0.04,,---,0.04,VWS V14.01,2013-02-05 13:06:00,
2013-02-05 05:11:00,44.5,42.6,29.85,SSE,168,1.0,6.0,93,0.04,,---,0.04,VWS V14.01,2013-02-05 13:11:00,
2013-02-05 05:16:00,44.5,42.9,29.85,SSE,165,0.0,6.0,94,0.04,,---,0.04,VWS V14.01,2013-02-05 13:16:00,
2013-02-05 05:21:00,44.5,42.9,29.85,SSE,156,1.0,6.0,94,0.04,,---,0.04,VWS V14.01,2013-02-05 13:21:00,
2013-02-05 05:26:00,44.5,42.6,29.84,SSE,165,0.0,7.0,93,0.05,,---,0.05,VWS V14.01,2013-02-05 13:26:00,
2013-02-05 05:31:00,44.5,42.6,29.84,East,88,1.0,6.0,93,0.04,,---,0.05,VWS V14.01,2013-02-05 13:31:00,
2013-02-05 05:36:00,44.4,42.5,29.84,SE,142,2.0,6.0,93,0.04,,---,0.05,VWS V14.01,2013-02-05 13:36:00,
2013-02-05 05:41:00,44.4,42.5,29.84,SW,233,1.0,6.0,93,0.05,,---,0.06,VWS V14.01,2013-02-05 13:41:00,
2013-02-05 05:47:00,44.3,42.4,29.83,ESE,120,1.0,10.0,93,0.05,,---,0.06,VWS V14.01,2013-02-05 13:47:00,
2013-02-05 05:52:00,44.3,42.4,29.83,SW,223,1.0,10.0,93,0.05,,---,0.06,VWS V14.01,2013-02-05 13:52:00,
2013-02-05 05:57:00,44.4,42.5,29.83,SSE,148,0.0,10.0,93,0.05,,---,0.06,VWS V14.01,2013-02-05 13:57:00,
2013-02-05 06:02:00,44.5,42.6,29.83,SSE,161,6.0,10.0,93,0.02,,---,0.06,VWS V14.01,2013-02-05 14:02:00,
2013-02-05 06:07:00,44.6,42.4,29.83,SSE,148,2.0,11.0,92,0.02,,---,0.06,VWS V14.01,2013-02-05 14:07:00,
2013-02-05 06:12:00,44.6,42.7,29.83,ESE,105,1.0,11.0,93,0.02,,---,0.06,VWS V14.01,2013-02-05 14:12:00,
2013-02-05 06:17:00,44.6,42.7,29.83,SE,135,0.0,11.0,93,0.02,,---,0.06,VWS V14.01,2013-02-05 14:17:00,
2013-02-05 06:22:00,44.6,42.7,29.83,ESE,123,5.0,11.0,93,0.02,,---,0.06,VWS V14.01,2013-02-05 14:22:00,
2013-02-05 06:27:00,44.5,42.6,29.83,ESE,121,2.0,11.0,93,0.02,,---,0.06,VWS V14.01,2013-02-05 14:27:00,
2013-02-05 06:32:00,44.5,42.6,29.82,ESE,115,2.0,5.0,93,0.01,,---,0.06,VWS V14.01,2013-02-05 14:32:00,
2013-02-05 06:37:00,44.5,42.6,29.82,East,96,6.0,9.0,93,0.01,,---,0.06,VWS V14.01,2013-02-05 14:37:00,
2013-02-05 06:42:00,44.5,42.6,29.82,ESE,106,7.0,10.0,93,0.01,,---,0.06,VWS V14.01,2013-02-05 14:42:00,
2013-02-05 06:47:00,44.6,42.7,29.82,ESE,107,1.0,10.0,93,0.01,,---,0.06,VWS V14.01,2013-02-05 14:47:00,
2013-02-05 06:52:00,44.6,42.7,29.83,South,190,0.0,10.0,93,0.01,,---,0.06,VWS V14.01,2013-02-05 14:52:00,
2013-02-05 06:57:00,44.5,42.6,29.82,SSE,153,0.0,10.0,93,0.01,,---,0.06,VWS V14.01,2013-02-05 14:57:00,
2013-02-05 07:02:00,44.5,42.9,29.82,East,95,1.0,4.0,94,0.00,,---,0.06,VWS V14.01,2013-02-05 15:02:00,
2013-02-05 07:07:00,44.5,42.9,29.82,SE,132,1.0,6.0,94,0.00,,---,0.06,VWS V14.01,2013-02-05 15:07:00,
2013-02-05 07:13:00,44.6,43.0,29.83,SE,133,2.0,9.0,94,0.00,,---,0.06,VWS V14.01,2013-02-05 15:13:00,
2013-02-05 07:18:00,44.7,43.1,29.83,East,94,3.0,9.0,94,0.00,,---,0.06,VWS V14.01,2013-02-05 15:18:00,
2013-02-05 07:23:00,44.8,42.9,29.83,ESE,123,6.0,12.0,93,0.00,,---,0.06,VWS V14.01,2013-02-05 15:23:00,
2013-02-05 07:28:00,44.8,42.9,29.83,ESE,107,4.0,12.0,93,0.00,,---,0.06,VWS V14.01,2013-02-05 15:28:00,
2013-02-05 07:33:00,44.8,42.9,29.83,ESE,113,3.0,8.0,93,0.00,,---,0.06,VWS V14.01,2013-02-05 15:33:00,
2013-02-05 07:38:00,44.9,43.0,29.83,ESE,110,5.0,8.0,93,0.00,,---,0.06,VWS V14.01,2013-02-05 15:38:00,
2013-02-05 07:43:00,44.9,43.0,29.83,ESE,121,0.0,8.0,93,0.00,,---,0.06,VWS V14.01,2013-02-05 15:43:00,
2013-02-05 07:48:00,44.9,43.0,29.83,ESE,113,0.0,8.0,93,0.00,,---,0.06,VWS V14.01,2013-02-05 15:48:00,
2013-02-05 07:53:00,44.8,42.9,29.83,East,101,0.0,8.0,93,0.00,,---,0.06,VWS V14.01,2013-02-05 15:53:00,
2013-02-05 07:58:00,44.8,42.9,29.83,ENE,78,4.0,8.0,93,0.00,,---,0.06,VWS V14.01,2013-02-05 15:58:00,
2013-02-05 08:03:00,44.8,42.9,29.84,ESE,116,0.0,5.0,93,0.00,,---,0.06,VWS V14.01,2013-02-05 16:03:00,
2013-02-05 08:08:00,44.8,42.9,29.84,SE,127,1.0,5.0,93,0.00,,---,0.06,VWS V14.01,2013-02-05 16:08:00,
2013-02-05 08:13:00,44.9,43.0,29.84,ESE,107,0.0,5.0,93,0.00,,---,0.06,VWS V14.01,2013-02-05 16:13:00,
2013-02-05 08:18:00,45.0,43.1,29.84,ESE,105,1.0,5.0,93,0.00,,---,0.06,VWS V14.01,2013-02-05 16:18:00,
2013-02-05 08:23:00,45.0,42.8,29.84,ESE,122,0.0,7.0,92,0.00,,---,0.06,VWS V14.01,2013-02-05 16:23:00,
2013-02-05 08:28:00,45.0,42.8,29.84,ESE,103,3.0,7.0,92,0.00,,---,0.06,VWS V14.01,2013-02-05 16:28:00,
2013-02-05 08:34:00,45.1,42.6,29.84,SE,138,0.0,4.0,91,0.00,,---,0.06,VWS V14.01,2013-02-05 16:34:00,
2013-02-05 08:39:00,45.2,42.7,29.84,SE,138,0.0,4.0,91,0.00,,---,0.06,VWS V14.01,2013-02-05 16:39:00,
2013-02-05 08:44:00,45.3,42.8,29.84,ESE,116,4.0,5.0,91,0.00,,---,0.06,VWS V14.01,2013-02-05 16:44:00,
2013-02-05 08:49:00,45.3,42.8,29.84,ESE,115,0.0,5.0,91,0.00,,---,0.06,VWS V14.01,2013-02-05 16:49:00,
2013-02-05 08:54:00,45.4,42.9,29.84,SE,142,1.0,9.0,91,0.00,,---,0.06,VWS V14.01,2013-02-05 16:54:00,
2013-02-05 08:59:00,45.5,42.7,29.84,SE,138,3.0,9.0,90,0.00,,---,0.06,VWS V14.01,2013-02-05 16:59:00,
2013-02-05 09:04:00,45.6,42.8,29.84,SSE,148,0.0,9.0,90,0.00,,---,0.06,VWS V14.01,2013-02-05 17:04:00,
2013-02-05 09:09:00,45.6,42.8,29.84,SSE,150,1.0,9.0,90,0.00,,---,0.06,VWS V14.01,2013-02-05 17:09:00,
2013-02-05 09:14:00,45.8,42.8,29.84,SSE,157,0.0,9.0,89,0.00,,---,0.06,VWS V14.01,2013-02-05 17:14:00,
2013-02-05 09:19:00,45.8,42.8,29.84,South,191,1.0,11.0,89,0.00,,---,0.06,VWS V14.01,2013-02-05 17:19:00,
2013-02-05 09:24:00,46.0,42.7,29.84,SSE,150,0.0,11.0,88,0.00,,---,0.06,VWS V14.01,2013-02-05 17:24:00,
2013-02-05 09:29:00,46.5,43.1,29.84,SSE,159,2.0,11.0,88,0.00,,---,0.06,VWS V14.01,2013-02-05 17:29:00,
2013-02-05 09:34:00,47.1,43.4,29.84,WSW,237,0.0,10.0,87,0.00,,---,0.06,VWS V14.01,2013-02-05 17:34:00,
2013-02-05 09:39:00,47.7,43.7,29.84,SSE,150,0.0,10.0,86,0.00,,---,0.06,VWS V14.01,2013-02-05 17:39:00,
2013-02-05 09:44:00,47.8,43.5,29.84,South,169,0.0,10.0,85,0.00,,---,0.06,VWS V14.01,2013-02-05 17:44:00,
2013-02-05 09:49:00,47.6,43.0,29.84,South,177,1.0,10.0,84,0.00,,---,0.06,VWS V14.01,2013-02-05 17:49:00,
2013-02-05 09:54:00,47.4,42.8,29.85,SE,146,8.0,10.0,84,0.00,,---,0.06,VWS V14.01,2013-02-05 17:54:00,
2013-02-05 10:00:00,47.3,43.0,29.85,South,182,0.0,10.0,85,0.00,,---,0.06,VWS V14.01,2013-02-05 18:00:00,
2013-02-05 10:05:00,47.3,43.0,29.85,SSE,151,0.0,6.0,85,0.00,,---,0.06,VWS V14.01,2013-02-05 18:05:00,
2013-02-05 10:10:00,47.3,43.0,29.85,SSE,167,0.0,7.0,85,0.00,,---,0.06,VWS V14.01,2013-02-05 18:10:00,
2013-02-05 10:15:00,47.3,43.0,29.85,East,101,4.0,7.0,85,0.00,,---,0.06,VWS V14.01,2013-02-05 18:15:00,
2013-02-05 10:20:00,47.4,43.1,29.85,South,173,0.0,7.0,85,0.00,,---,0.06,VWS V14.01,2013-02-05 18:20:00,
2013-02-05 10:25:00,47.7,43.1,29.85,SSE,156,4.0,8.0,84,0.00,,---,0.06,VWS V14.01,2013-02-05 18:25:00,
2013-02-05 10:30:00,48.2,43.3,29.85,WSW,249,3.0,11.0,83,0.00,,---,0.06,VWS V14.01,2013-02-05 18:30:00,
2013-02-05 10:35:00,48.3,43.4,29.85,South,190,0.0,6.0,83,0.00,,---,0.06,VWS V14.01,2013-02-05 18:35:00,
2013-02-05 10:40:00,48.3,43.1,29.85,SSE,155,0.0,11.0,82,0.00,,---,0.06,VWS V14.01,2013-02-05 18:40:00,
2013-02-05 10:45:00,48.5,43.3,29.85,SSE,164,0.0,11.0,82,0.00,,---,0.06,VWS V14.01,2013-02-05 18:45:00,
2013-02-05 10:50:00,48.6,43.4,29.85,SE,137,1.0,11.0,82,0.00,,---,0.06,VWS V14.01,2013-02-05 18:50:00,
2013-02-05 10:55:00,48.6,43.4,29.85,SSE,157,1.0,11.0,82,0.00,,---,0.06,VWS V14.01,2013-02-05 18:55:00,
2013-02-05 11:00:00,48.8,43.6,29.85,SE,126,1.0,11.0,82,0.00,,---,0.06,VWS V14.01,2013-02-05 19:00:00,
2013-02-05 11:05:00,49.1,43.5,29.85,SW,219,0.0,10.0,81,0.00,,---,0.06,VWS V14.01,2013-02-05 19:05:00,
2013-02-05 11:10:00,49.4,44.1,29.85,SSE,152,2.0,11.0,82,0.00,,---,0.06,VWS V14.01,2013-02-05 19:10:00,
2013-02-05 11:15:00,49.4,43.5,29.85,SE,128,11.0,11.0,80,0.00,,---,0.06,VWS V14.01,2013-02-05 19:15:00,
2013-02-05 11:20:00,49.3,43.4,29.85,South,178,0.0,11.0,80,0.00,,---,0.06,VWS V14.01,2013-02-05 19:20:00,
2013-02-05 11:26:00,49.3,43.4,29.85,SE,136,0.0,11.0,80,0.00,,---,0.06,VWS V14.01,2013-02-05 19:26:00,
2013-02-05 11:31:00,49.3,44.0,29.85,SSE,163,2.0,4.0,82,0.00,,---,0.06,VWS V14.01,2013-02-05 19:31:00,
2013-02-05 11:36:00,48.9,44.0,29.85,South,188,0.0,4.0,83,0.00,,---,0.06,VWS V14.01,2013-02-05 19:36:00,
2013-02-05 11:41:00,48.4,43.8,29.85,SE,138,0.0,6.0,84,0.00,,---,0.06,VWS V14.01,2013-02-05 19:41:00,
2013-02-05 11:46:00,48.1,43.8,29.85,SSE,158,1.0,6.0,85,0.00,,---,0.06,VWS V14.01,2013-02-05 19:46:00,
2013-02-05 11:51:00,48.1,43.5,29.85,SSE,158,4.0,8.0,84,0.00,,---,0.06,VWS V14.01,2013-02-05 19:51:00,
2013-02-05 11:56:00,48.3,43.4,29.85,SSW,194,0.0,16.0,83,0.00,,---,0.06,VWS V14.01,2013-02-05 19:56:00,
2013-02-05 12:01:00,48.6,43.7,29.85,SW,222,4.0,11.0,83,0.00,,---,0.06,VWS V14.01,2013-02-05 20:01:00,
2013-02-05 12:06:00,49.0,44.1,29.85,South,188,0.0,11.0,83,0.00,,---,0.06,VWS V14.01,2013-02-05 20:06:00,
2013-02-05 12:11:00,49.2,43.3,29.84,South,173,0.0,11.0,80,0.00,,---,0.06,VWS V14.01,2013-02-05 20:11:00,
2013-02-05 12:16:00,49.3,43.1,29.84,SE,128,9.0,14.0,79,0.00,,---,0.06,VWS V14.01,2013-02-05 20:16:00,
2013-02-05 12:21:00,49.4,43.5,29.84,SE,144,0.0,14.0,80,0.00,,---,0.06,VWS V14.01,2013-02-05 20:21:00,
2013-02-05 12:26:00,49.5,43.3,29.84,SE,129,0.0,14.0,79,0.00,,---,0.06,VWS V14.01,2013-02-05 20:26:00,
2013-02-05 12:31:00,49.5,43.6,29.84,SW,225,2.0,3.0,80,0.00,,---,0.06,VWS V14.01,2013-02-05 20:31:00,
2013-02-05 12:36:00,49.7,43.5,29.84,SSE,150,1.0,21.0,79,0.01,,---,0.07,VWS V14.01,2013-02-05 20:36:00,
2013-02-05 12:41:00,49.8,43.6,29.84,South,186,0.0,21.0,79,0.01,,---,0.07,VWS V14.01,2013-02-05 20:41:00,
2013-02-05 12:46:00,50.0,43.4,29.83,SSE,157,0.0,21.0,78,0.01,,---,0.07,VWS V14.01,2013-02-05 20:46:00,
2013-02-05 12:51:00,50.2,43.6,29.83,West,266,0.0,21.0,78,0.01,,---,0.07,VWS V14.01,2013-02-05 20:51:00,
2013-02-05 12:56:00,50.5,43.9,29.84,WSW,244,2.0,21.0,78,0.01,,---,0.07,VWS V14.01,2013-02-05 20:56:00,
2013-02-05 13:02:00,50.3,43.4,29.84,SSW,194,3.0,10.0,77,0.01,,---,0.07,VWS V14.01,2013-02-05 21:02:00,
2013-02-05 13:07:00,50.0,43.4,29.83,SW,230,3.0,15.0,78,0.01,,---,0.07,VWS V14.01,2013-02-05 21:07:00,
2013-02-05 13:12:00,49.9,43.7,29.83,SW,214,5.0,15.0,79,0.01,,---,0.07,VWS V14.01,2013-02-05 21:12:00,
2013-02-05 13:17:00,50.0,43.4,29.83,SE,134,0.0,15.0,78,0.01,,---,0.07,VWS V14.01,2013-02-05 21:17:00,
2013-02-05 13:22:00,49.8,43.6,29.83,WNW,290,2.0,15.0,79,0.01,,---,0.07,VWS V14.01,2013-02-05 21:22:00,
2013-02-05 13:27:00,49.9,43.7,29.83,South,190,1.0,15.0,79,0.01,,---,0.07,VWS V14.01,2013-02-05 21:27:00,
2013-02-05 13:32:00,50.3,43.7,29.83,South,176,1.0,3.0,78,0.01,,---,0.07,VWS V14.01,2013-02-05 21:32:00,
2013-02-05 13:37:00,50.5,43.9,29.82,SSE,153,3.0,7.0,78,0.01,,---,0.07,VWS V14.01,2013-02-05 21:37:00,
2013-02-05 13:42:00,50.2,43.6,29.82,SE,146,2.0,12.0,78,0.01,,---,0.07,VWS V14.01,2013-02-05 21:42:00,
2013-02-05 13:47:00,50.1,43.5,29.82,SSE,159,1.0,12.0,78,0.01,,---,0.07,VWS V14.01,2013-02-05 21:47:00,
2013-02-05 13:52:00,50.2,43.6,29.82,SE,129,0.0,12.0,78,0.01,,---,0.07,VWS V14.01,2013-02-05 21:52:00,
2013-02-05 13:57:00,49.9,43.3,29.82,SE,124,6.0,13.0,78,0.01,,---,0.07,VWS V14.01,2013-02-05 21:57:00,
2013-02-05 14:02:00,49.9,43.7,29.82,South,176,6.0,11.0,79,0.00,,---,0.07,VWS V14.01,2013-02-05 22:02:00,
2013-02-05 14:08:00,50.0,43.4,29.82,SSE,155,4.0,11.0,78,0.00,,---,0.07,VWS V14.01,2013-02-05 22:08:00,
2013-02-05 14:13:00,49.7,43.5,29.82,SW,223,4.0,14.0,79,0.00,,---,0.07,VWS V14.01,2013-02-05 22:13:00,
2013-02-05 14:18:00,49.5,43.3,29.82,South,177,2.0,14.0,79,0.00,,---,0.07,VWS V14.01,2013-02-05 22:18:00,
2013-02-05 14:23:00,49.7,43.5,29.82,SSE,160,3.0,14.0,79,0.00,,---,0.07,VWS V14.01,2013-02-05 22:23:00,
2013-02-05 14:28:00,49.7,43.1,29.82,SE,140,3.0,14.0,78,0.00,,---,0.07,VWS V14.01,2013-02-05 22:28:00,
2013-02-05 14:33:00,49.8,42.9,29.82,SE,144,4.0,5.0,77,0.00,,---,0.07,VWS V14.01,2013-02-05 22:33:00,
2013-02-05 14:38:00,50.0,42.7,29.82,East,83,1.0,10.0,76,0.00,,---,0.07,VWS V14.01,2013-02-05 22:38:00,
2013-02-05 14:43:00,50.1,43.2,29.82,SE,145,3.0,10.0,77,0.00,,---,0.07,VWS V14.01,2013-02-05 22:43:00,
2013-02-05 14:48:00,50.1,43.2,29.82,SSE,160,0.0,16.0,77,0.00,,---,0.07,VWS V14.01,2013-02-05 22:48:00,
2013-02-05 14:53:00,49.9,43.0,29.83,SSW,203,0.0,16.0,77,0.00,,---,0.07,VWS V14.01,2013-02-05 22:53:00,
2013-02-05 14:58:00,49.6,43.0,29.83,SW,234,0.0,16.0,78,0.00,,---,0.07,VWS V14.01,2013-02-05 22:58:00,
2013-02-05 15:03:00,49.3,43.4,29.83,SSE,153,1.0,6.0,80,0.00,,---,0.07,VWS V14.01,2013-02-05 23:03:00,
2013-02-05 15:08:00,49.0,43.1,29.83,SW,227,2.0,12.0,80,0.00,,---,0.07,VWS V14.01,2013-02-05 23:08:00,
2013-02-05 15:13:00,48.7,43.5,29.83,SSE,164,2.0,12.0,82,0.00,,---,0.07,VWS V14.01,2013-02-05 23:13:00,
2013-02-05 15:19:00,48.5,43.3,29.83,SSW,194,1.0,12.0,82,0.00,,---,0.07,VWS V14.01,2013-02-05 23:19:00,
2013-02-05 15:24:00,48.4,43.5,29.83,South,186,1.0,12.0,83,0.00,,---,0.07,VWS V14.01,2013-02-05 23:24:00,
2013-02-05 15:29:00,48.5,43.9,29.83,SSW,213,0.0,12.0,84,0.00,,---,0.07,VWS V14.01,2013-02-05 23:29:00,
2013-02-05 15:34:00,48.4,43.8,29.83,SSE,157,1.0,5.0,84,0.00,,---,0.07,VWS V14.01,2013-02-05 23:34:00,
2013-02-05 15:39:00,48.4,43.8,29.82,South,188,0.0,5.0,84,0.00,,---,0.07,VWS V14.01,2013-02-05 23:39:00,
2013-02-05 15:44:00,48.4,43.8,29.82,SE,138,0.0,6.0,84,0.00,,---,0.07,VWS V14.01,2013-02-05 23:44:00,
2013-02-05 15:49:00,48.6,43.7,29.82,South,191,1.0,6.0,83,0.00,,---,0.07,VWS V14.01,2013-02-05 23:49:00,
2013-02-05 15:54:00,48.7,43.1,29.83,SE,134,2.0,11.0,81,0.00,,---,0.07,VWS V14.01,2013-02-05 23:54:00,
2013-02-05 15:59:00,48.8,43.2,29.83,SSW,198,3.0,12.0,81,0.00,,---,0.07,VWS V14.01,2013-02-05 23:59:00,
2013-02-05 16:04:00,48.9,43.3,29.83,SSE,153,0.0,10.0,81,0.00,,---,0.07,VWS V14.01,2013-02-06 00:04:00,
2013-02-05 16:09:00,48.7,42.8,29.83,SSE,153,5.0,11.0,80,0.00,,---,0.07,VWS V14.01,2013-02-06 00:09:00,
2013-02-05 16:14:00,48.5,42.6,29.83,SSW,201,0.0,11.0,80,0.00,,---,0.07,VWS V14.01,2013-02-06 00:14:00,
2013-02-05 16:19:00,48.4,42.5,29.83,South,179,0.0,13.0,80,0.00,,---,0.07,VWS V14.01,2013-02-06 00:19:00,
2013-02-05 16:24:00,48.2,42.3,29.83,SSW,199,4.0,13.0,80,0.00,,---,0.07,VWS V14.01,2013-02-06 00:24:00,
2013-02-05 16:29:00,47.9,42.4,29.83,South,170,3.0,17.0,81,0.00,,---,0.07,VWS V14.01,2013-02-06 00:29:00,
2013-02-05 16:34:00,47.5,42.3,29.83,WSW,251,1.0,12.0,82,0.00,,---,0.07,VWS V14.01,2013-02-06 00:34:00,
2013-02-05 16:40:00,47.1,42.5,29.83,SSW,209,0.0,12.0,84,0.00,,---,0.07,VWS V14.01,2013-02-06 00:40:00,
2013-02-05 16:45:00,46.7,42.7,29.83,SSE,158,2.0,12.0,86,0.01,,---,0.08,VWS V14.01,2013-02-06 00:45:00,
2013-02-05 16:50:00,46.0,42.7,29.83,WSW,250,2.0,12.0,88,0.01,,---,0.08,VWS V14.01,2013-02-06 00:50:00,
2013-02-05 16:55:00,45.6,42.5,29.83,WNW,292,1.0,12.0,89,0.02,,---,0.09,VWS V14.01,2013-02-06 00:55:00,
2013-02-05 17:00:00,45.3,42.5,29.83,West,267,0.0,12.0,90,0.02,,---,0.09,VWS V14.01,2013-02-06 01:00:00,
2013-02-05 17:05:00,45.0,42.2,29.83,South,181,0.0,7.0,90,0.02,,---,0.09,VWS V14.01,2013-02-06 01:05:00,
2013-02-05 17:10:00,45.0,42.2,29.83,SW,225,2.0,11.0,90,0.02,,---,0.09,VWS V14.01,2013-02-06 01:10:00,
2013-02-05 17:15:00,45.0,42.5,29.83,SSW,198,4.0,11.0,91,0.02,,---,0.09,VWS V14.01,2013-02-06 01:15:00,
2013-02-05 17:20:00,44.9,42.4,29.83,South,188,0.0,11.0,91,0.02,,---,0.09,VWS V14.01,2013-02-06 01:20:00,
2013-02-05 17:25:00,44.9,42.4,29.83,SE,143,0.0,11.0,91,0.02,,---,0.09,VWS V14.01,2013-02-06 01:25:00,
2013-02-05 17:30:00,44.8,42.3,29.83,ESE,121,1.0,2.0,91,0.02,,---,0.09,VWS V14.01,2013-02-06 01:30:00,
2013-02-05 17:35:00,44.9,42.4,29.83,SE,137,0.0,10.0,91,0.02,,---,0.09,VWS V14.01,2013-02-06 01:35:00,
2013-02-05 17:40:00,45.0,42.5,29.83,SSW,195,0.0,10.0,91,0.02,,---,0.09,VWS V14.01,2013-02-06 01:40:00,
2013-02-05 17:45:00,45.0,42.2,29.83,South,183,4.0,11.0,90,0.03,,---,0.10,VWS V14.01,2013-02-06 01:45:00,
2013-02-05 17:51:00,45.1,42.3,29.83,SSE,164,4.0,12.0,90,0.03,,---,0.10,VWS V14.01,2013-02-06 01:51:00,
2013-02-05 17:56:00,45.1,42.3,29.83,SSW,211,5.0,12.0,90,0.03,,---,0.10,VWS V14.01,2013-02-06 01:56:00,
2013-02-05 18:01:00,45.1,42.3,29.83,ESE,105,1.0,4.0,90,0.01,,---,0.10,VWS V14.01,2013-02-06 02:01:00,
2013-02-05 18:06:00,45.2,42.5,29.83,South,182,1.0,5.0,90,0.01,,---,0.10,VWS V14.01,2013-02-06 02:06:00,
2013-02-05 18:11:00,45.2,42.5,29.83,SE,140,7.0,16.0,90,0.01,,---,0.10,VWS V14.01,2013-02-06 02:11:00,
2013-02-05 18:16:00,45.4,42.6,29.83,SSE,153,4.0,16.0,90,0.01,,---,0.10,VWS V14.01,2013-02-06 02:16:00,
2013-02-05 18:21:00,45.5,42.7,29.83,South,169,0.0,16.0,90,0.01,,---,0.10,VWS V14.01,2013-02-06 02:21:00,
2013-02-05 18:26:00,45.4,42.6,29.84,SSE,163,6.0,16.0,90,0.01,,---,0.10,VWS V14.01,2013-02-06 02:26:00,
2013-02-05 18:31:00,45.5,42.7,29.84,SSW,196,0.0,2.0,90,0.01,,---,0.10,VWS V14.01,2013-02-06 02:31:00,
2013-02-05 18:36:00,45.5,42.7,29.84,ESE,118,1.0,9.0,90,0.01,,---,0.10,VWS V14.01,2013-02-06 02:36:00,
2013-02-05 18:41:00,45.7,42.9,29.85,SSE,147,1.0,9.0,90,0.01,,---,0.10,VWS V14.01,2013-02-06 02:41:00,
2013-02-05 18:46:00,45.8,43.0,29.85,South,179,0.0,9.0,90,0.01,,---,0.10,VWS V14.01,2013-02-06 02:46:00,
2013-02-05 18:51:00,45.9,43.1,29.85,SW,218,0.0,11.0,90,0.01,,---,0.10,VWS V14.01,2013-02-06 02:51:00,
2013-02-05 18:56:00,46.0,43.2,29.85,SSE,167,0.0,11.0,90,0.01,,---,0.10,VWS V14.01,2013-02-06 02:56:00,
2013-02-05 19:01:00,46.1,43.3,29.85,SE,143,1.0,2.0,90,0.00,,---,0.10,VWS V14.01,2013-02-06 03:01:00,
2013-02-05 19:07:00,46.1,43.0,29.85,South,187,0.0,11.0,89,0.00,,---,0.10,VWS V14.01,2013-02-06 03:07:00,
2013-02-05 19:12:00,46.1,43.0,29.85,SSW,192,2.0,11.0,89,0.00,,---,0.10,VWS V14.01,2013-02-06 03:12:00,
2013-02-05 19:17:00,46.0,42.7,29.85,SSE,148,2.0,11.0,88,0.00,,---,0.10,VWS V14.01,2013-02-06 03:17:00,
2013-02-05 19:22:00,45.9,42.5,29.85,SE,137,5.0,11.0,88,0.00,,---,0.10,VWS V14.01,2013-02-06 03:22:00,
2013-02-05 19:27:00,45.8,42.5,29.85,SE,132,5.0,11.0,88,0.00,,---,0.10,VWS V14.01,2013-02-06 03:27:00,
2013-02-05 19:32:00,45.8,42.5,29.86,SSE,153,6.0,6.0,88,0.00,,---,0.10,VWS V14.01,2013-02-06 03:32:00,
2013-02-05 19:37:00,45.8,42.5,29.85,South,178,3.0,8.0,88,0.00,,---,0.10,VWS V14.01,2013-02-06 03:37:00,
2013-02-05 19:42:00,45.7,42.1,29.85,SSE,157,3.0,13.0,87,0.00,,---,0.10,VWS V14.01,2013-02-06 03:42:00,
2013-02-05 19:47:00,45.6,42.3,29.85,South,180,0.0,13.0,88,0.00,,---,0.10,VWS V14.01,2013-02-06 03:47:00,
2013-02-05 19:52:00,45.6,42.3,29.85,SE,145,0.0,14.0,88,0.00,,---,0.10,VWS V14.01,2013-02-06 03:52:00,
2013-02-05 19:57:00,45.5,42.2,29.85,South,177,2.0,14.0,88,0.00,,---,0.10,VWS V14.01,2013-02-06 03:57:00,
2013-02-05 20:02:00,45.6,42.3,29.85,SSW,196,1.0,9.0,88,0.00,,---,0.10,VWS V14.01,2013-02-06 04:02:00,
2013-02-05 20:07:00,45.6,42.3,29.85,SSE,162,0.0,9.0,88,0.00,,---,0.10,VWS V14.01,2013-02-06 04:07:00,
2013-02-05 20:12:00,45.6,42.3,29.85,SE,146,2.0,13.0,88,0.00,,---,0.10,VWS V14.01,2013-02-06 04:12:00,
2013-02-05 20:17:00,45.5,42.2,29.85,SSE,167,2.0,13.0,88,0.00,,---,0.10,VWS V14.01,2013-02-06 04:17:00,
2013-02-05 20:22:00,45.3,42.0,29.85,SSE,148,3.0,13.0,88,0.00,,---,0.10,VWS V14.01,2013-02-06 04:22:00,
2013-02-05 20:28:00,45.2,41.9,29.85,SSE,166,2.0,15.0,88,0.00,,---,0.10,VWS V14.01,2013-02-06 04:28:00,
2013-02-05 20:33:00,45.1,41.8,29.86,South,186,2.0,3.0,88,0.00,,---,0.10,VWS V14.01,2013-02-06 04:33:00,
2013-02-05 20:38:00,45.0,41.7,29.86,SW,227,0.0,10.0,88,0.00,,---,0.10,VWS V14.01,2013-02-06 04:38:00,
2013-02-05 20:43:00,45.0,41.7,29.86,SE,125,1.0,11.0,88,0.00,,---,0.10,VWS V14.01,2013-02-06 04:43:00,
2013-02-05 20:48:00,45.0,41.7,29.87,SSW,194,0.0,11.0,88,0.00,,---,0.10,VWS V14.01,2013-02-06 04:48:00,
2013-02-05 20:53:00,45.0,41.7,29.87,SE,144,1.0,11.0,88,0.00,,---,0.10,VWS V14.01,2013-02-06 04:53:00,
2013-02-05 20:58:00,45.0,41.7,29.87,SE,136,10.0,11.0,88,0.00,,---,0.10,VWS V14.01,2013-02-06 04:58:00,
2013-02-05 21:00:00,45.0,41.7,29.87,South,175,2.0,11.0,88,0.00,,---,0.10,VWS V14.01,2013-02-06 05:00:00,
2013-02-05 21:06:00,45.0,41.7,29.88,SSW,196,11.0,11.0,88,0.00,,---,0.10,VWS V14.01,2013-02-06 05:06:00,
2013-02-05 21:11:00,44.9,41.6,29.88,SSE,149,5.0,11.0,88,0.00,,---,0.10,VWS V14.01,2013-02-06 05:11:00,
2013-02-05 21:16:00,44.9,41.6,29.88,SE,142,2.0,11.0,88,0.00,,---,0.10,VWS V14.01,2013-02-06 05:16:00,
2013-02-05 21:21:00,44.8,41.8,29.89,East,96,3.0,12.0,89,0.00,,---,0.10,VWS V14.01,2013-02-06 05:21:00,
2013-02-05 21:26:00,44.6,41.8,29.89,SW,229,0.0,12.0,90,0.01,,---,0.11,VWS V14.01,2013-02-06 05:26:00,
2013-02-05 21:31:00,44.3,41.8,29.89,SE,137,0.0,9.0,91,0.02,,---,0.12,VWS V14.01,2013-02-06 05:31:00,
2013-02-05 21:36:00,44.1,41.7,29.89,South,169,2.0,9.0,91,0.02,,---,0.12,VWS V14.01,2013-02-06 05:36:00,
2013-02-05 21:41:00,43.9,41.7,29.88,SSE,165,2.0,9.0,92,0.02,,---,0.12,VWS V14.01,2013-02-06 05:41:00,
2013-02-05 21:46:00,43.8,41.6,29.88,SSE,159,0.0,9.0,92,0.03,,---,0.13,VWS V14.01,2013-02-06 05:46:00,
2013-02-05 21:51:00,43.8,41.6,29.87,ESE,123,0.0,9.0,92,0.03,,---,0.13,VWS V14.01,2013-02-06 05:51:00,
2013-02-05 21:56:00,43.8,41.6,29.87,SSE,161,2.0,9.0,92,0.03,,---,0.13,VWS V14.01,2013-02-06 05:56:00,
2013-02-05 22:01:00,43.8,41.6,29.87,South,183,3.0,11.0,92,0.03,,---,0.13,VWS V14.01,2013-02-06 06:01:00,
2013-02-05 22:06:00,44.0,41.8,29.87,SE,139,2.0,15.0,92,0.03,,---,0.13,VWS V14.01,2013-02-06 06:06:00,
2013-02-05 22:11:00,44.0,41.5,29.88,SSE,155,0.0,15.0,91,0.03,,---,0.13,VWS V14.01,2013-02-06 06:11:00,
2013-02-05 22:16:00,44.1,41.7,29.87,SSE,152,0.0,15.0,91,0.03,,---,0.13,VWS V14.01,2013-02-06 06:16:00,
2013-02-05 22:21:00,44.1,41.7,29.88,SSW,196,2.0,15.0,91,0.03,,---,0.13,VWS V14.01,2013-02-06 06:21:00,
2013-02-05 22:26:00,44.2,41.7,29.88,SSE,163,3.0,15.0,91,0.03,,---,0.13,VWS V14.01,2013-02-06 06:26:00,
2013-02-05 22:32:00,44.3,41.6,29.88,South,185,0.0,6.0,90,0.01,,---,0.13,VWS V14.01,2013-02-06 06:32:00,
2013-02-05 22:37:00,44.3,41.6,29.88,SSE,157,5.0,11.0,90,0.01,,---,0.13,VWS V14.01,2013-02-06 06:37:00,
2013-02-05 22:42:00,44.4,41.7,29.88,WSW,249,3.0,14.0,90,0.01,,---,0.13,VWS V14.01,2013-02-06 06:42:00,
2013-02-05 22:47:00,44.4,41.7,29.89,South,175,1.0,14.0,90,0.01,,---,0.13,VWS V14.01,2013-02-06 06:47:00,
2013-02-05 22:52:00,44.5,41.8,29.89,SSE,150,3.0,14.0,90,0.01,,---,0.13,VWS V14.01,2013-02-06 06:52:00,
2013-02-05 22:57:00,44.7,42.0,29.89,SW,218,5.0,14.0,90,0.01,,---,0.13,VWS V14.01,2013-02-06 06:57:00,
2013-02-05 23:02:00,44.8,41.8,29.89,SSE,156,4.0,6.0,89,0.00,,---,0.13,VWS V14.01,2013-02-06 07:02:00,
2013-02-05 23:07:00,44.7,41.7,29.89,South,177,1.0,9.0,89,0.00,,---,0.13,VWS V14.01,2013-02-06 07:07:00,
2013-02-05 23:12:00,44.7,41.7,29.89,East,82,15.0,20.0,89,0.00,,---,0.13,VWS V14.01,2013-02-06 07:12:00,
2013-02-05 23:17:00,44.6,41.6,29.89,SE,144,0.0,20.0,89,0.00,,---,0.13,VWS V14.01,2013-02-06 07:17:00,
2013-02-05 23:22:00,44.6,41.6,29.90,SSE,161,6.0,20.0,89,0.00,,---,0.13,VWS V14.01,2013-02-06 07:22:00,
2013-02-05 23:27:00,44.6,41.6,29.90,South,169,1.0,20.0,89,0.00,,---,0.13,VWS V14.01,2013-02-06 07:27:00,
2013-02-05 23:32:00,44.6,41.6,29.90,SE,132,3.0,11.0,89,0.00,,---,0.13,VWS V14.01,2013-02-06 07:32:00,
2013-02-05 23:37:00,44.7,41.7,29.90,SE,132,3.0,16.0,89,0.00,,---,0.13,VWS V14.01,2013-02-06 07:37:00,
2013-02-05 23:42:00,44.9,41.9,29.90,SW,218,0.0,16.0,89,0.00,,---,0.13,VWS V14.01,2013-02-06 07:42:00,
2013-02-05 23:47:00,44.8,41.8,29.91,SE,132,1.0,16.0,89,0.00,,---,0.13,VWS V14.01,2013-02-06 07:47:00,
2013-02-05 23:52:00,44.8,41.8,29.91,SSW,193,1.0,16.0,89,0.00,,---,0.13,VWS V14.01,2013-02-06 07:52:00,
2013-02-05 23:57:00,44.9,41.9,29.91,SSW,196,2.0,16.0,89,0.00,,---,0.13,VWS V14.01,2013-02-06 07:57:00,